Regional Weather Roundup
Issued by NWS

Home | Current Version | Previous Version | Text Only | Print | Product List | Glossary Off
Versions: 1 2 3 4 5 6 7 8 9 10 11 12 13 14 15 16 17 18 19 20 21 22 23 24 25 26 27 28 29 30 31 32 33 34 35 36 37 38 39 40 41 42 43 44 45 46 47 48 49 50

000
ASUS43 KDTX 222110
RWRMI
MICHIGAN HOURLY REGIONAL WEATHER ROUNDUP
NATIONAL WEATHER SERVICE DETROIT/PONTIAC MI
400 PM EST MON DEC 22 2014

NOTE: "FAIR" INDICATES FEW OR NO CLOUDS BELOW 12,000 FEET WITH NO
SIGNIFICANT WEATHER AND/OR OBSTRUCTION TO VISIBILITY.

MIZ047>049-052>055-059>063-066>070-074>076-081>083-222200-
SOUTHEAST LOWER MICHIGAN

CITY           SKY/WX    TMP DP  RH WIND       PRES   REMARKS
ADRIAN         MOCLDY    36  30  79 E9        29.92F WCI  29
ALMA           CLOUDY    37  29  74 E10       29.93S WCI  30
ANN ARBOR      MOCLDY    38  30  73 E7        29.94R WCI  33
BAD AXE        CLOUDY    32  29  88 SE8       30.00S WCI  25
CARO           MOCLDY    36  28  72 E5        29.96S WCI  32
DETROIT CITY   MOCLDY    38  29  70 SE9       29.97F WCI  31
DETROIT        CLOUDY    38  30  73 E7        29.95R WCI  33
FLINT          CLOUDY    40  28  62 E13       29.93F WCI  32
GROSSE ILE     MOCLDY    37  30  75 E6        29.95R WCI  33
HILLSDALE      MOCLDY    37  31  77 E13       29.87S WCI  29
HOWELL         CLOUDY    37  28  70 E10       29.91S WCI  30

CITY           SKY/WX    TMP DP  RH WIND       PRES   REMARKS
JACKSON        CLOUDY    37  29  72 E10       29.89F WCI  30
LAMBERTVILLE   CLOUDY    36  30  80 E8        29.94S WCI  29
LANSING        CLOUDY    38  28  67 E13       29.91F WCI  30
LAPEER         CLOUDY    36  28  72 E6        29.95F WCI  31
MASON          CLOUDY    37  29  72 E6        29.90S WCI  32
MONROE         CLOUDY    36  30  80 E9        29.94R WCI  29
MT. CLEMENS    MOCLDY    37  34  88 E12       29.92F WCI  30
PONTIAC        MOCLDY    36  29  75 E7        29.92F WCI  30
PORT HOPE        N/A     33  26  75 SE10      30.00R WCI  25
PORT HURON     MOCLDY    37  30  75 S7        30.00R WCI  32
TRI CITIES     CLOUDY    38  28  67 E9        29.95F WCI  31
TROY           CLOUDY    38  30  73 E9        29.96S WCI  31
SAGINAW HB     CLOUDY    37  30  75 E7        29.94F WCI  32
$$
MIZ043>046-050>051-056>058-064>065-071>073-077>080-222200-
SOUTHWEST LOWER MICHIGAN

CITY           SKY/WX    TMP DP  RH WIND       PRES   REMARKS
BATTLE CREEK   CLOUDY    39  30  70 E9        29.85F WCI  33
BENTON HARBOR  MIX PCPN  35  33  92 E14       29.78F FOG     WCI  26
BIG RAPIDS     CLOUDY    34  29  81 E12G17    29.89S WCI  26
COLDWATER      CLOUDY    38  30  74 SE9G18    29.86S WCI  31
FREMONT        LGT SNOW  35  28  76 E9G18     29.86F WCI  28
HOLLAND        LGT RAIN  37  31  78 E12       29.83F WCI  29
GRAND RAPIDS   LGT RAIN  35  30  82 E15       29.86F HAZE    WCI  25
IONIA          CLOUDY    38  29  72 E7        29.89S WCI  32
KALAMAZOO      LGT RAIN  39  30  70 SE9       29.84F WCI  33
LUDINGTON      CLOUDY    38  29  70 SE9       29.86S WCI  31
MARSHALL       CLOUDY    37  29  74 E9        29.86F WCI  30
MOUNT PLEASANT CLOUDY    36  27  70 E7        29.93S WCI  30
MUSKEGON       LGT RAIN  36  30  79 E10       29.84F WCI  28
SOUTH HAVEN    RAIN      37  33  85 SE13      29.80F WCI  28
$$
MIZ016>042-222200-
NORTHERN LOWER MICHIGAN

CITY           SKY/WX    TMP DP  RH WIND       PRES   REMARKS
ALPENA         CLOUDY    33  27  78 SE8       30.00F WCI  26
BEAVER ISLAND  CLOUDY    35  28  73 E9G18     29.93S WCI  28
BELLAIRE       CLOUDY    37  25  64 SE5       29.94R WCI  33
CADILLAC       CLOUDY    32  25  74 E7        29.87F WCI  26
CHARLEVOIX     CLOUDY    36  26  68 E9        29.95S WCI  29
FRANKFORT      CLOUDY    37  26  66 SE9       29.87F WCI  30
GAYLORD        PTCLDY    31  25  78 SE8       29.93R WCI  23
GRAYLING       MOCLDY    33  26  76 E12       29.94S WCI  24
HARBOR SPRINGS CLEAR     35  25  69 E8        29.95R WCI  28
HOUGHTON LAKE  CLOUDY    32  25  75 E8        29.93S WCI  25
MANISTEE       CLOUDY    36  23  60 E9        29.87S WCI  29
OSCODA         CLOUDY    33  27  78 SE6       30.00R WCI  28
PELLSTON       CLEAR     34  26  72 SE9       29.96S WCI  27
ROGERS CITY    CLOUDY    33  30  87 SE7       30.00F WCI  27
TRAVERSE CITY  CLOUDY    37  25  61 E10       29.90S WCI  30
$$
MIZ007>008-015-222200-
EASTERN UPPER MICHIGAN

CITY           SKY/WX    TMP DP  RH WIND       PRES   REMARKS
KINROSS        CLOUDY    34  30  86 SE14      29.98R WCI  24
MACKINAC ISLAN CLEAR     34  28  77 E13G20    29.96S WCI  25
NEWBERRY       PTCLDY    32  28  83 SE9       29.93S WCI  24
S. S. MARIE    CLOUDY    34  28  79 SE9       29.98R WCI  27
MUNISING         N/A     36  28  73 S14G20    29.88S WCI  27
$$
MIZ004>006-011>014-085-222200-
CENTRAL UPPER MICHIGAN

CITY           SKY/WX    TMP DP  RH WIND       PRES   REMARKS
MANISTIQUE     PTCLDY    33  30  88 E13       29.92S WCI  24
ESCANABA       CLOUDY    36  28  75 SE8       29.88R WCI  29
MENOMINEE      CLOUDY    36  30  80 SE8       29.84F WCI  29
SAWYER-GWINN   CLOUDY    32  30  93 S14       29.85R FOG     WCI  22
$$
MIZ001>003-009>011-084-222200-
WESTERN UPPER MICHIGAN

CITY           SKY/WX    TMP DP  RH WIND       PRES   REMARKS
IRON MOUNTAIN  CLOUDY    34  31  88 SE10      29.82R FOG     WCI  26
HOUGHTON       CLOUDY    35  32  88 SE10      29.79R WCI  27
COPPER HARBOR    N/A     37  33  85 SW13G21   29.83R WCI  29
IRONWOOD       CLOUDY    36  32  87 CALM      29.70R
$$

ABBREVIATIONS USED IN REMARKS
   TC - TEMPERATURE IN CELSIUS
  WCI - WIND CHILL INDEX
   HX - HEAT INDEX
  VSB - VISIBILITY




USA.gov is the U.S. government's official web portal to all federal, state and local government web resources and services.